Lexington Weather

Lexington, Massachusetts, USA

24°F
3/3/2021 4:22am 
  • Lexington Conditions: Clear
  • Temperature: 24.3°F / -4.3°CWarmer 0.6°F than last hour.
  • Dew Point: 11.7°FIncreased 0.6°Fsince last hour.
  • Relative Humidity: 58
  • Wind: Wind from WSW WSW 2 mph, 10-min avg: 1 mph, gust: 6 mph
  • Barometer: 29.85 in Steady
  • Visibility: 10 miles
  • Snow Today: 0.0 in
  •   

Regional Weather Roundup
for Boston / Norton, MA

        
000
ASUS41 KBOX 241004
RWRBOX

REGIONAL WEATHER ROUNDUP
NATIONAL WEATHER SERVICE BOSTON/NORTON MA
500 AM EST WED FEB 24 2021

NOTE:  "FAIR" INDICATES FEW OR NO CLOUDS BELOW 12,000 FEET WITH NO 
SIGNIFICANT WEATHER AND/OR OBSTRUCTIONS TO VISIBILITY.

MAZALL-241100-
EASTERN MASSACHUSETTS
  
CITY           SKY/WX    TMP DP  RH WIND       PRES   REMARKS
BOSTON         CLEAR     38  28  67 SW10      29.87R WCI  31          
BEVERLY        CLEAR     34  28  79 SW5       29.84R WCI  30          
LAWRENCE       CLEAR     33  28  81 SW7       29.85R WCI  27          
BEDFORD        CLEAR     37  27  67 SW7       29.85R WCI  32          
BLUE HILL        N/A     36  28  73 W18G26    29.84R WCI  26          
NORWOOD        CLEAR     39  26  59 SW7       29.88R                  
MARSHFIELD     CLEAR     37  30  75 VRB6      29.87R                  
PLYMOUTH       CLEAR     36  28  73 W9        29.87R WCI  29          
TAUNTON        CLEAR     38  27  64 W9        29.89R WCI  31          
NEW BEDFORD    CLEAR     41  27  57 W12       29.90R                  
$$

MAZALL-241100-
CAPE COD AND THE ISLANDS
  
CITY           SKY/WX    TMP DP  RH WIND       PRES   REMARKS
FALMOUTH       CLEAR     36  28  75 W13       29.88R WCI  27          
HYANNIS        CLEAR     37  30  75 W6        29.86R                  
CHATHAM        CLEAR     34  28  79 W5        29.88R WCI  30          
PROVINCETOWN   CLEAR     37  32  82 W10       29.87R WCI  30          
NANTUCKET      CLEAR     38  33  82 W16G22    29.89R WCI  29          
MARTHAS VNYRD  CLEAR     40  31  70 W12       29.90R                  
$$
 
MAZALL-241100-
CENTRAL AND WESTERN MASSACHUSETTS
  
CITY           SKY/WX    TMP DP  RH WIND       PRES   REMARKS
WORCESTER      CLEAR     36  24  62 W13       29.85R WCI  27          
FITCHBURG      CLEAR     38  27  64 W8        29.86R                  
ORANGE         CLEAR     37  26  64 W8        29.87R WCI  31          
SPRINGFIELD    PTCLDY    39  27  62 W10G22    29.89R WCI  32          
WESTFIELD      CLEAR     38  27  64 CALM      29.90R                  
NORTH ADAMS    MOCLDY    38  27  64 SW14      29.90R WCI  30          
PITTSFIELD     PTCLDY    34  27  75 W8        29.88S WCI  27          
$$
 
RIZALL-241100-
RHODE ISLAND
  
CITY           SKY/WX    TMP DP  RH WIND       PRES   REMARKS
PROVIDENCE     CLEAR     36  26  67 SW3       29.92R                  
NEWPORT        CLEAR     36  29  75 VRB5      29.92R                  
BLOCK ISLAND   CLEAR     37  32  82 W15       29.96R WCI  28          
SMITHFIELD     CLEAR     36  27  69 SW5       29.90R                  
WESTERLY       CLEAR     35  30  82 W5        29.94R WCI  31          
$$
 
CTZALL-241100-
CONNECTICUT
  
CITY           SKY/WX    TMP DP  RH WIND       PRES   REMARKS
BRADLEY INTL   PTCLDY    38  26  62 CALM      29.91R                  
HARTFORD       CLEAR     41  26  55 NW7       29.93R                  
BRIDGEPORT     NOT AVBL                                               
DANBURY        CLEAR     32  26  78 SW6       29.95R WCI  26          
GROTON         CLEAR     37  31  78 W8        29.94R WCI  31          
NEW HAVEN      CLEAR     38  30  73 S3        29.94R                  
CHESTER        FAIR     N/A N/A N/A SW6       29.94R                  
MERIDEN        CLEAR     33  26  75 CALM      29.94R                  
WILLIMANTIC    CLEAR     39  26  59 S3        29.93R                  
OXFORD         CLEAR     36  31  82 W5        29.92R                  
$$

MEZ002-015-021-024-NHZ003-005-008-011-012-014-VTZ005-008-241100-
NORTHERN NEW ENGLAND
  
CITY           SKY/WX    TMP DP  RH WIND       PRES   REMARKS
PORTLAND ME    CLOUDY    36  29  75 W6        29.78R WCI  31          
BANGOR ME      CLOUDY    32  31  96 SW5       29.71R WCI  27          
CONCORD NH     CLEAR     36  26  67 CALM      29.81R                  
MANCHESTER NH  CLEAR     37  26  64 S5        29.81R                  
NASHUA NH      CLEAR     27  25  92 W6        29.85R WCI  20          
PORTSMOUTH NH  CLEAR     33  27  78 SW8       29.81R WCI  26          
JAFFREY NH     CLEAR     29  25  85 S5        29.83R WCI  24          
KEENE NH       MOCLDY    31  29  92 S5        29.86R WCI  26          
BURLINGTON VT  MOCLDY    39  27  62 NW13G25   29.83R WCI  31          
MT. WASHINGTON SNOW      14  14 100 W69G79      N/A  VSB 0   WCI -14  
$$

NYZ052-076-241100-
EASTERN NEW YORK
  
CITY           SKY/WX    TMP DP  RH WIND       PRES   REMARKS
ALBANY         CLOUDY    37  30  75 W8        29.92R WCI  31          
NEW YORK CITY  CLEAR     42  27  55 SW9       30.00R                  
$$
 
ANZALL-241100-
MARINE OBSERVATIONS
  
STATION/POSITION TIME  TEMP    WIND        PRES    VSBY  WAVE
                       AIR SEA DIR/SP/G                  HT/PER
                 (UTC) (F)     (DEG/KT/KT) (MB)    (MI)  (FT/S)
BOSTON BUOY      0940   39 39  260/ 10/ 14 1011.1R
BUZZARDS BAY     0900          280/ 16/ 17 1012.7R
NANTUCKET SOUND  0940      36  280/ 14/ 16   N/A
MASS BAY-STELLWA 0904   40     260/ 14/ 17 1008.7R  1 7/8
ISLE OF SHOALS   0900   38     250/ 16/ 17 1008.5R
S OF BLOCK IS    0926      38                N/A           6/11
$$

......................KEY.........................
  SKY/WX - SKY CONDITION/PRESENT WEATHER
  TMP    - TEMPERATURE IN FAHRENHEIT
  DWPT   - DEWPOINT IN FAHRENHEIT
  RH     - RELATIVE HUMIDITY IN PERCENT
  WIND   - DIRECTION AND SPEED IN MPH
  PRES   - MEAN SEA LEVEL PRESSURE IN INCHES OF HG
  WCI    - WIND CHILL INDEX
  VSB    - VISIBILITY IN MILES
  HX     - HEAT INDEX
  TC     - TEMPERATURE IN CELSIUS
  VRB    - VARIABLE WIND DIRECTION
  N/A    - NOT AVAILABLE
  
      

Other recent Regional Weather Roundups

Wed Mar 3, 4:04am

Wed Mar 3, 3:04am

Wed Mar 3, 2:04am

Wed Mar 3, 1:04am

Wed Mar 3, 12:04am

Tue Mar 2, 11:04pm

Tue Mar 2, 10:05pm

Tue Mar 2, 9:04pm

Tue Mar 2, 8:04pm

Tue Mar 2, 7:04pm

Tue Mar 2, 6:04pm

Tue Mar 2, 5:04pm

Tue Mar 2, 4:05pm

Tue Mar 2, 3:04pm

Tue Mar 2, 2:04pm

Tue Mar 2, 1:04pm

Tue Mar 2, 12:04pm

Tue Mar 2, 11:04am

Tue Mar 2, 10:05am

Tue Mar 2, 9:04am

Tue Mar 2, 8:04am

Tue Mar 2, 7:04am

Tue Mar 2, 6:05am

Tue Mar 2, 5:04am

Tue Mar 2, 4:04am

Tue Mar 2, 3:04am

Tue Mar 2, 2:04am

Tue Mar 2, 1:04am

Tue Mar 2, 12:04am

Mon Mar 1, 11:04pm

Mon Mar 1, 10:04pm

Mon Mar 1, 9:04pm

Mon Mar 1, 8:04pm

Mon Mar 1, 7:04pm

Mon Mar 1, 6:04pm

Mon Mar 1, 5:04pm

Mon Mar 1, 4:05pm

Mon Mar 1, 3:05pm

Mon Mar 1, 2:04pm

Mon Mar 1, 1:04pm

Mon Mar 1, 12:04pm

Mon Mar 1, 11:04am

Mon Mar 1, 10:04am

Mon Mar 1, 9:04am

Mon Mar 1, 8:05am

Mon Mar 1, 7:04am

Mon Mar 1, 6:04am

Mon Mar 1, 5:04am

Mon Mar 1, 4:05am

Mon Mar 1, 3:04am

Mon Mar 1, 2:04am

Mon Mar 1, 1:04am

Mon Mar 1, 12:05am

Sun Feb 28, 11:04pm

Sun Feb 28, 10:04pm

Sun Feb 28, 9:04pm

Sun Feb 28, 8:04pm

Sun Feb 28, 7:04pm

Sun Feb 28, 6:05pm

Sun Feb 28, 5:04pm

Sun Feb 28, 4:05pm

Sun Feb 28, 3:04pm

Sun Feb 28, 2:04pm

Sun Feb 28, 1:04pm

Sun Feb 28, 12:04pm

Sun Feb 28, 11:04am

Sun Feb 28, 10:04am

Sun Feb 28, 9:04am

Sun Feb 28, 8:04am

Sun Feb 28, 7:04am

Sun Feb 28, 6:04am

Sun Feb 28, 5:04am

Sun Feb 28, 4:04am

Sun Feb 28, 3:04am

Sun Feb 28, 2:04am

Sun Feb 28, 1:04am

Sun Feb 28, 12:04am

Sat Feb 27, 11:04pm

Sat Feb 27, 10:04pm

Sat Feb 27, 9:04pm

Sat Feb 27, 8:04pm

Sat Feb 27, 7:04pm

Sat Feb 27, 6:04pm

Sat Feb 27, 5:04pm

Sat Feb 27, 4:04pm

Sat Feb 27, 3:05pm

Sat Feb 27, 2:05pm

Sat Feb 27, 1:04pm

Sat Feb 27, 12:04pm

Sat Feb 27, 11:04am

Sat Feb 27, 10:04am

Sat Feb 27, 9:05am

Sat Feb 27, 8:04am

Sat Feb 27, 7:04am

Sat Feb 27, 6:04am

Sat Feb 27, 5:04am

Sat Feb 27, 4:04am

Sat Feb 27, 3:04am

Sat Feb 27, 2:04am

Sat Feb 27, 1:04am

Sat Feb 27, 12:04am

Fri Feb 26, 11:04pm

Fri Feb 26, 10:04pm

Fri Feb 26, 9:04pm

Fri Feb 26, 8:04pm

Fri Feb 26, 7:04pm

Fri Feb 26, 6:04pm

Fri Feb 26, 5:04pm

Fri Feb 26, 4:04pm

Fri Feb 26, 3:04pm

Fri Feb 26, 2:04pm

Fri Feb 26, 1:04pm

Fri Feb 26, 12:04pm

Fri Feb 26, 11:04am

Fri Feb 26, 10:04am

Fri Feb 26, 9:04am

Fri Feb 26, 8:04am

Fri Feb 26, 7:04am

Fri Feb 26, 6:04am

Fri Feb 26, 5:04am

Fri Feb 26, 4:04am

Fri Feb 26, 3:04am

Fri Feb 26, 2:04am

Fri Feb 26, 1:04am

Fri Feb 26, 12:04am

Thu Feb 25, 11:04pm

Thu Feb 25, 10:04pm

Thu Feb 25, 9:04pm

Thu Feb 25, 8:05pm

Thu Feb 25, 7:05pm

Thu Feb 25, 6:04pm

Thu Feb 25, 5:04pm

Thu Feb 25, 4:05pm

Thu Feb 25, 3:05pm

Thu Feb 25, 2:04pm

Thu Feb 25, 1:04pm

Thu Feb 25, 12:05pm

Thu Feb 25, 11:04am

Thu Feb 25, 10:04am

Thu Feb 25, 9:04am

Thu Feb 25, 8:04am

Thu Feb 25, 7:04am

Thu Feb 25, 6:04am

Thu Feb 25, 5:04am

Thu Feb 25, 4:04am

Thu Feb 25, 3:04am

Thu Feb 25, 2:04am

Thu Feb 25, 1:04am

Thu Feb 25, 12:04am

Wed Feb 24, 11:04pm

Wed Feb 24, 10:05pm

Wed Feb 24, 9:04pm

Wed Feb 24, 8:04pm

Wed Feb 24, 7:04pm

Wed Feb 24, 6:04pm

Wed Feb 24, 5:04pm

Wed Feb 24, 4:04pm

Wed Feb 24, 3:04pm

Wed Feb 24, 2:05pm

Wed Feb 24, 1:05pm

Wed Feb 24, 12:05pm

Wed Feb 24, 11:04am

Wed Feb 24, 10:04am

Wed Feb 24, 9:04am

Wed Feb 24, 8:04am

Wed Feb 24, 7:04am

Wed Feb 24, 6:04am

Meta data:

ID: de8670f8-c5fb-40e5-94f7-eac579185f5f
Link: https://api.weather.gov/products/de8670f8-c5fb-40e5-94f7-eac579185f5f